Time,TemperatureF,DewpointF,PressureIn,WindDirection,WindDirectionDegrees,WindSpeedMPH,WindSpeedGustMPH,Humidity,HourlyPrecipIn,Conditions,Clouds,dailyrainin,SoftwareType,DateUTC
2013-01-06 00:03:00,36.7,35.1,30.18,West,262,0.0,0.0,94,0.00,BKN,BKN,0.09,WeatherDisplay:10.37,2013-01-06 08:03:00,
2013-01-06 00:08:00,36.7,35.1,30.18,WSW,246,0.0,2.0,94,0.00,BKN,BKN,0.09,WeatherDisplay:10.37,2013-01-06 08:08:00,
2013-01-06 00:18:00,36.7,35.1,30.18,West,273,0.0,1.0,94,0.00,BKN,BKN,0.09,WeatherDisplay:10.37,2013-01-06 08:18:00,
2013-01-06 00:23:00,36.7,35.4,30.18,NW,318,0.0,1.0,95,0.00,BKN,BKN,0.09,WeatherDisplay:10.37,2013-01-06 08:23:00,
2013-01-06 00:28:00,36.7,35.4,30.18,WNW,287,0.0,1.0,95,0.01,RA,RA,0.10,WeatherDisplay:10.37,2013-01-06 08:28:00,
2013-01-06 00:33:00,36.7,35.4,30.18,SW,227,0.0,0.0,95,0.00,RA,RA,0.10,WeatherDisplay:10.37,2013-01-06 08:33:00,
2013-01-06 00:38:00,36.8,35.5,30.18,SSW,197,0.0,0.0,95,0.00,BKN,BKN,0.10,WeatherDisplay:10.37,2013-01-06 08:38:00,
2013-01-06 00:43:00,36.8,35.5,30.18,South,184,0.0,1.0,95,0.00,BKN,BKN,0.10,WeatherDisplay:10.37,2013-01-06 08:43:00,
2013-01-06 00:48:00,36.9,35.6,30.18,ESE,105,0.0,2.0,95,0.00,BKN,BKN,0.10,WeatherDisplay:10.37,2013-01-06 08:48:00,
2013-01-06 00:53:00,36.9,35.6,30.18,ENE,76,0.0,1.0,95,0.00,BKN,BKN,0.10,WeatherDisplay:10.37,2013-01-06 08:53:00,
2013-01-06 00:58:00,36.8,35.5,30.18,SW,215,0.0,3.0,95,0.00,BKN,BKN,0.10,WeatherDisplay:10.37,2013-01-06 08:58:00,
2013-01-06 01:03:00,36.7,35.4,30.18,SW,222,0.0,2.0,95,0.00,BKN,BKN,0.10,WeatherDisplay:10.37,2013-01-06 09:03:00,
2013-01-06 01:08:00,36.5,35.2,30.18,SW,219,0.0,2.0,95,0.00,BKN,BKN,0.10,WeatherDisplay:10.37,2013-01-06 09:08:00,
2013-01-06 01:13:00,36.4,35.1,30.18,SSW,194,1.0,2.0,95,0.00,BKN,BKN,0.10,WeatherDisplay:10.37,2013-01-06 09:13:00,
2013-01-06 01:18:00,36.2,34.9,30.18,SSW,199,0.0,3.0,95,0.00,BKN,BKN,0.10,WeatherDisplay:10.37,2013-01-06 09:18:00,
2013-01-06 01:23:00,36.1,34.8,30.18,SW,216,0.0,2.0,95,0.00,BKN,BKN,0.10,WeatherDisplay:10.37,2013-01-06 09:23:00,
2013-01-06 01:28:00,36.0,34.7,30.18,South,190,1.0,1.0,95,0.00,BKN,BKN,0.10,WeatherDisplay:10.37,2013-01-06 09:28:00,
2013-01-06 01:33:00,36.0,35.0,30.18,SW,220,0.0,1.0,96,0.00,BKN,BKN,0.10,WeatherDisplay:10.37,2013-01-06 09:33:00,
2013-01-06 01:38:00,36.1,35.1,30.18,SW,227,0.0,2.0,96,0.00,BKN,BKN,0.10,WeatherDisplay:10.37,2013-01-06 09:38:00,
2013-01-06 01:43:00,36.1,35.1,30.18,SSW,213,0.0,1.0,96,0.00,BKN,BKN,0.10,WeatherDisplay:10.37,2013-01-06 09:43:00,
2013-01-06 01:48:00,36.1,35.1,30.18,SSW,211,0.0,1.0,96,0.00,BKN,BKN,0.10,WeatherDisplay:10.37,2013-01-06 09:48:00,
2013-01-06 01:58:00,36.3,35.3,30.19,ESE,123,0.0,0.0,96,0.00,BKN,BKN,0.10,WeatherDisplay:10.37,2013-01-06 09:58:00,
2013-01-06 02:03:00,36.3,35.3,30.19,SE,141,0.0,1.0,96,0.00,BKN,BKN,0.10,WeatherDisplay:10.37,2013-01-06 10:03:00,
2013-01-06 02:08:00,36.3,35.2,30.19,SE,142,0.0,0.0,96,0.00,BKN,BKN,0.10,WeatherDisplay:10.37,2013-01-06 10:08:00,
2013-01-06 02:13:00,36.2,35.2,30.19,SE,141,0.0,0.0,96,0.00,BKN,BKN,0.10,WeatherDisplay:10.37,2013-01-06 10:13:00,
2013-01-06 02:18:00,36.1,35.1,30.20,SE,141,0.0,1.0,96,0.00,BKN,BKN,0.10,WeatherDisplay:10.37,2013-01-06 10:18:00,
2013-01-06 02:23:00,36.0,35.0,30.20,SE,141,0.0,1.0,96,0.00,BKN,BKN,0.10,WeatherDisplay:10.37,2013-01-06 10:23:00,
2013-01-06 02:28:00,36.2,35.1,30.20,ESE,111,0.0,1.0,96,0.00,BKN,BKN,0.10,WeatherDisplay:10.37,2013-01-06 10:28:00,
2013-01-06 02:33:00,36.3,35.3,30.20,East,81,0.0,1.0,96,0.00,BKN,BKN,0.10,WeatherDisplay:10.37,2013-01-06 10:33:00,
2013-01-06 02:38:00,36.4,35.4,30.20,East,82,0.0,1.0,96,0.00,BKN,BKN,0.10,WeatherDisplay:10.37,2013-01-06 10:38:00,
2013-01-06 02:43:00,36.4,35.4,30.21,ENE,63,0.0,0.0,96,0.00,BKN,BKN,0.10,WeatherDisplay:10.37,2013-01-06 10:43:00,
2013-01-06 02:48:00,36.5,35.5,30.20,NE,46,0.0,1.0,96,0.00,BKN,BKN,0.10,WeatherDisplay:10.37,2013-01-06 10:48:00,
2013-01-06 02:53:00,36.5,35.5,30.20,ENE,61,0.0,0.0,96,0.00,BKN,BKN,0.10,WeatherDisplay:10.37,2013-01-06 10:53:00,
2013-01-06 02:58:00,36.5,35.5,30.20,ENE,71,0.0,0.0,96,0.00,BKN,BKN,0.10,WeatherDisplay:10.37,2013-01-06 10:58:00,
2013-01-06 03:03:00,36.5,35.5,30.20,ENE,70,0.0,0.0,96,0.00,BKN,BKN,0.10,WeatherDisplay:10.37,2013-01-06 11:03:00,
2013-01-06 03:08:00,36.4,35.4,30.20,ENE,71,0.0,0.0,96,0.00,BKN,BKN,0.10,WeatherDisplay:10.37,2013-01-06 11:08:00,
2013-01-06 03:13:00,36.4,35.4,30.20,ENE,71,0.0,0.0,96,0.00,BKN,BKN,0.10,WeatherDisplay:10.37,2013-01-06 11:13:00,
2013-01-06 03:18:00,36.5,35.5,30.20,East,89,0.0,0.0,96,0.00,BKN,BKN,0.10,WeatherDisplay:10.37,2013-01-06 11:18:00,
2013-01-06 03:23:00,36.5,35.5,30.20,SSE,159,0.0,0.0,96,0.00,BKN,BKN,0.10,WeatherDisplay:10.37,2013-01-06 11:23:00,
2013-01-06 03:28:00,36.6,35.6,30.20,SSE,166,0.0,2.0,96,0.00,BKN,BKN,0.10,WeatherDisplay:10.37,2013-01-06 11:28:00,
2013-01-06 03:33:00,36.7,35.7,30.19,South,185,0.0,1.0,96,0.00,BKN,BKN,0.10,WeatherDisplay:10.37,2013-01-06 11:33:00,
2013-01-06 03:38:00,36.7,35.7,30.19,SSW,210,0.0,1.0,96,0.00,BKN,BKN,0.10,WeatherDisplay:10.37,2013-01-06 11:38:00,
2013-01-06 03:43:00,36.8,35.8,30.19,SSW,204,0.0,2.0,96,0.00,BKN,BKN,0.10,WeatherDisplay:10.37,2013-01-06 11:43:00,
2013-01-06 03:48:00,36.9,36.1,30.19,SSW,204,0.0,1.0,97,0.00,BKN,BKN,0.10,WeatherDisplay:10.37,2013-01-06 11:48:00,
2013-01-06 03:53:00,36.9,35.9,30.18,SW,231,0.0,0.0,96,0.00,BKN,BKN,0.10,WeatherDisplay:10.37,2013-01-06 11:53:00,
2013-01-06 03:58:00,36.9,35.9,30.18,SW,235,0.0,2.0,96,0.00,BKN,BKN,0.10,WeatherDisplay:10.37,2013-01-06 11:58:00,
2013-01-06 04:03:00,37.0,35.9,30.18,WSW,238,0.0,1.0,96,0.00,BKN,BKN,0.10,WeatherDisplay:10.37,2013-01-06 12:03:00,
2013-01-06 04:08:00,37.0,36.0,30.18,WSW,244,0.0,1.0,96,0.00,BKN,BKN,0.10,WeatherDisplay:10.37,2013-01-06 12:08:00,
2013-01-06 04:13:00,37.0,36.0,30.18,SSW,195,0.0,2.0,96,0.00,BKN,BKN,0.10,WeatherDisplay:10.37,2013-01-06 12:13:00,
2013-01-06 04:18:00,37.1,36.1,30.18,SSE,168,0.0,0.0,96,0.00,BKN,BKN,0.10,WeatherDisplay:10.37,2013-01-06 12:18:00,
2013-01-06 04:23:00,37.1,36.3,30.18,South,172,0.0,0.0,97,0.00,BKN,BKN,0.10,WeatherDisplay:10.37,2013-01-06 12:23:00,
2013-01-06 04:28:00,37.2,36.4,30.18,South,172,0.0,0.0,97,0.00,BKN,BKN,0.10,WeatherDisplay:10.37,2013-01-06 12:28:00,
2013-01-06 04:33:00,37.2,36.2,30.18,South,172,0.0,0.0,96,0.00,BKN,BKN,0.10,WeatherDisplay:10.37,2013-01-06 12:33:00,
2013-01-06 04:38:00,37.2,36.4,30.18,SSW,194,0.0,0.0,97,0.00,BKN,BKN,0.10,WeatherDisplay:10.37,2013-01-06 12:38:00,
2013-01-06 04:43:00,37.3,36.5,30.17,SSW,196,0.0,0.0,97,0.00,BKN,BKN,0.10,WeatherDisplay:10.37,2013-01-06 12:43:00,
2013-01-06 04:53:00,37.4,36.3,30.17,SW,219,0.0,0.0,96,0.00,BKN,BKN,0.10,WeatherDisplay:10.37,2013-01-06 12:53:00,
2013-01-06 04:58:00,37.3,36.3,30.17,SW,235,0.0,0.0,96,0.00,BKN,BKN,0.10,WeatherDisplay:10.37,2013-01-06 12:58:00,
2013-01-06 05:03:00,37.3,36.3,30.17,SSW,211,0.0,0.0,96,0.00,BKN,BKN,0.10,WeatherDisplay:10.37,2013-01-06 13:03:00,
2013-01-06 05:08:00,37.4,36.3,30.17,SSW,192,0.0,0.0,96,0.00,BKN,BKN,0.10,WeatherDisplay:10.37,2013-01-06 13:08:00,
2013-01-06 05:13:00,37.4,36.4,30.17,SSW,199,0.0,0.0,96,0.00,BKN,BKN,0.10,WeatherDisplay:10.37,2013-01-06 13:13:00,
2013-01-06 05:18:00,37.4,36.4,30.17,SSW,200,0.0,0.0,96,0.00,BKN,BKN,0.10,WeatherDisplay:10.37,2013-01-06 13:18:00,
2013-01-06 05:23:00,37.4,36.3,30.17,SSW,200,0.0,0.0,96,0.00,BKN,BKN,0.10,WeatherDisplay:10.37,2013-01-06 13:23:00,
2013-01-06 05:28:00,37.4,36.4,30.18,SSW,200,0.0,0.0,96,0.00,BKN,BKN,0.10,WeatherDisplay:10.37,2013-01-06 13:28:00,
2013-01-06 05:33:00,37.4,36.3,30.17,SSW,200,0.0,0.0,96,0.00,BKN,BKN,0.10,WeatherDisplay:10.37,2013-01-06 13:33:00,
2013-01-06 05:38:00,37.3,36.3,30.18,SSW,200,0.0,0.0,96,0.00,BKN,BKN,0.10,WeatherDisplay:10.37,2013-01-06 13:38:00,
2013-01-06 05:43:00,37.3,36.3,30.18,SSW,199,0.0,0.0,96,0.00,BKN,BKN,0.10,WeatherDisplay:10.37,2013-01-06 13:43:00,
2013-01-06 05:48:00,37.3,36.3,30.18,SSW,198,0.0,0.0,96,0.00,BKN,BKN,0.10,WeatherDisplay:10.37,2013-01-06 13:48:00,
2013-01-06 05:53:00,37.3,36.3,30.18,SSW,198,0.0,0.0,96,0.00,BKN,BKN,0.10,WeatherDisplay:10.37,2013-01-06 13:53:00,
2013-01-06 05:58:00,37.2,36.2,30.18,SSW,208,0.0,0.0,96,0.00,BKN,BKN,0.10,WeatherDisplay:10.37,2013-01-06 13:58:00,
2013-01-06 06:03:00,37.2,36.2,30.18,SSW,210,0.0,0.0,96,0.00,BKN,BKN,0.10,WeatherDisplay:10.37,2013-01-06 14:03:00,
2013-01-06 06:08:00,37.1,36.1,30.18,SE,128,0.0,0.0,96,0.00,BKN,BKN,0.10,WeatherDisplay:10.37,2013-01-06 14:08:00,
2013-01-06 06:13:00,37.1,36.1,30.19,East,87,0.0,0.0,96,0.00,BKN,BKN,0.10,WeatherDisplay:10.37,2013-01-06 14:13:00,
2013-01-06 06:18:00,37.1,36.1,30.19,ESE,115,0.0,0.0,96,0.00,BKN,BKN,0.10,WeatherDisplay:10.37,2013-01-06 14:18:00,
2013-01-06 06:23:00,37.1,36.1,30.19,SSW,194,0.0,0.0,96,0.00,BKN,BKN,0.10,WeatherDisplay:10.37,2013-01-06 14:23:00,
2013-01-06 06:28:00,37.1,36.1,30.18,SW,229,0.0,0.0,96,0.00,BKN,BKN,0.10,WeatherDisplay:10.37,2013-01-06 14:28:00,
2013-01-06 06:33:00,37.1,36.1,30.18,SW,229,0.0,0.0,96,0.00,BKN,BKN,0.10,WeatherDisplay:10.37,2013-01-06 14:33:00,
2013-01-06 06:43:00,37.0,36.0,30.18,SW,229,0.0,0.0,96,0.00,BKN,BKN,0.10,WeatherDisplay:10.37,2013-01-06 14:43:00,
2013-01-06 06:48:00,37.0,36.0,30.18,SW,229,0.0,0.0,96,0.00,BKN,BKN,0.10,WeatherDisplay:10.37,2013-01-06 14:48:00,
2013-01-06 06:53:00,36.9,35.9,30.19,SW,229,0.0,0.0,96,0.00,BKN,BKN,0.10,WeatherDisplay:10.37,2013-01-06 14:53:00,
2013-01-06 06:58:00,36.7,35.7,30.19,SW,229,0.0,0.0,96,0.00,BKN,BKN,0.10,WeatherDisplay:10.37,2013-01-06 14:58:00,
2013-01-06 07:03:00,36.4,35.4,30.18,SW,229,0.0,0.0,96,0.00,RA,RA,0.00,WeatherDisplay:10.37,2013-01-06 15:03:00,
2013-01-06 07:08:00,36.2,35.1,30.18,SW,229,0.0,0.0,96,0.00,RA,RA,0.00,WeatherDisplay:10.37,2013-01-06 15:08:00,
2013-01-06 07:13:00,36.1,35.1,30.18,SW,228,0.0,0.0,96,0.00,BKN,BKN,0.00,WeatherDisplay:10.37,2013-01-06 15:13:00,
2013-01-06 07:18:00,36.3,35.3,30.18,North,4,0.0,1.0,96,0.00,BKN,BKN,0.00,WeatherDisplay:10.37,2013-01-06 15:18:00,
2013-01-06 07:23:00,36.3,35.3,30.18,NNE,25,0.0,0.0,96,0.00,BKN,BKN,0.00,WeatherDisplay:10.37,2013-01-06 15:23:00,
2013-01-06 07:28:00,36.4,35.4,30.18,NNE,22,0.0,0.0,96,0.00,BKN,BKN,0.00,WeatherDisplay:10.37,2013-01-06 15:28:00,
2013-01-06 07:33:00,36.5,35.5,30.18,NNE,21,0.0,0.0,96,0.00,BKN,BKN,0.00,WeatherDisplay:10.37,2013-01-06 15:33:00,
2013-01-06 07:38:00,36.5,35.5,30.19,NNE,20,0.0,0.0,96,0.00,BKN,BKN,0.00,WeatherDisplay:10.37,2013-01-06 15:38:00,
2013-01-06 07:43:00,36.6,35.6,30.19,NNE,20,0.0,0.0,96,0.00,BKN,BKN,0.00,WeatherDisplay:10.37,2013-01-06 15:43:00,
2013-01-06 07:48:00,36.7,35.9,30.20,NNE,20,0.0,0.0,97,0.00,BKN,BKN,0.00,WeatherDisplay:10.37,2013-01-06 15:48:00,
2013-01-06 07:53:00,36.9,36.1,30.20,NW,321,0.0,0.0,97,0.00,BKN,BKN,0.00,WeatherDisplay:10.37,2013-01-06 15:53:00,
2013-01-06 07:58:00,37.0,36.2,30.20,WNW,286,0.0,0.0,97,0.00,BKN,BKN,0.00,WeatherDisplay:10.37,2013-01-06 15:58:00,
2013-01-06 08:03:00,37.1,36.3,30.20,WNW,287,0.0,0.0,97,0.00,BKN,BKN,0.00,WeatherDisplay:10.37,2013-01-06 16:03:00,
2013-01-06 08:08:00,37.1,36.1,30.20,WNW,287,0.0,0.0,96,0.00,BKN,BKN,0.00,WeatherDisplay:10.37,2013-01-06 16:08:00,
2013-01-06 08:13:00,37.1,36.1,30.21,WNW,287,0.0,0.0,96,0.00,BKN,BKN,0.00,WeatherDisplay:10.37,2013-01-06 16:13:00,
2013-01-06 08:18:00,37.1,36.1,30.21,WNW,287,0.0,0.0,96,0.00,BKN,BKN,0.00,WeatherDisplay:10.37,2013-01-06 16:18:00,
2013-01-06 08:23:00,37.2,36.4,30.21,WNW,287,0.0,0.0,97,0.00,BKN,BKN,0.00,WeatherDisplay:10.37,2013-01-06 16:23:00,
2013-01-06 08:28:00,37.3,36.5,30.21,WNW,287,0.0,0.0,97,0.01,RA,RA,0.01,WeatherDisplay:10.37,2013-01-06 16:28:00,
2013-01-06 08:33:00,37.3,36.5,30.21,WNW,287,0.0,0.0,97,0.00,RA,RA,0.01,WeatherDisplay:10.37,2013-01-06 16:33:00,
2013-01-06 08:38:00,37.4,36.7,30.21,WNW,284,0.0,0.0,97,0.00,BKN,BKN,0.01,WeatherDisplay:10.37,2013-01-06 16:38:00,
2013-01-06 08:43:00,37.6,36.8,30.21,West,266,0.0,1.0,97,0.00,BKN,BKN,0.01,WeatherDisplay:10.37,2013-01-06 16:43:00,
2013-01-06 08:48:00,37.6,36.8,30.21,WSW,250,0.0,1.0,97,0.00,BKN,BKN,0.01,WeatherDisplay:10.37,2013-01-06 16:48:00,
2013-01-06 08:53:00,37.8,37.0,30.22,WSW,242,0.0,0.0,97,0.00,BKN,BKN,0.01,WeatherDisplay:10.37,2013-01-06 16:53:00,
2013-01-06 08:58:00,38.0,37.2,30.22,SW,236,0.0,2.0,97,0.00,BKN,BKN,0.01,WeatherDisplay:10.37,2013-01-06 16:58:00,
2013-01-06 09:03:00,38.2,37.4,30.22,SSE,156,0.0,0.0,97,0.00,BKN,BKN,0.01,WeatherDisplay:10.37,2013-01-06 17:03:00,
2013-01-06 09:08:00,38.4,37.6,30.21,ESE,115,0.0,0.0,97,0.00,BKN,BKN,0.01,WeatherDisplay:10.37,2013-01-06 17:08:00,
2013-01-06 09:13:00,38.7,37.9,30.21,ESE,115,0.0,1.0,97,0.00,BKN,BKN,0.01,WeatherDisplay:10.37,2013-01-06 17:13:00,
2013-01-06 09:18:00,38.8,38.0,30.21,South,191,0.0,1.0,97,0.00,BKN,BKN,0.01,WeatherDisplay:10.37,2013-01-06 17:18:00,
2013-01-06 09:23:00,39.0,38.2,30.21,SSW,199,0.0,1.0,97,0.00,BKN,BKN,0.01,WeatherDisplay:10.37,2013-01-06 17:23:00,
2013-01-06 09:28:00,39.1,38.3,30.21,South,171,0.0,0.0,97,0.00,BKN,BKN,0.01,WeatherDisplay:10.37,2013-01-06 17:28:00,
2013-01-06 09:33:00,39.3,38.5,30.21,South,181,0.0,0.0,97,0.00,BKN,BKN,0.01,WeatherDisplay:10.37,2013-01-06 17:33:00,
2013-01-06 09:38:00,39.4,38.6,30.21,SSE,167,0.0,0.0,97,0.00,BKN,BKN,0.01,WeatherDisplay:10.37,2013-01-06 17:38:00,
2013-01-06 09:43:00,39.5,38.7,30.21,SSE,158,0.0,0.0,97,0.00,BKN,BKN,0.01,WeatherDisplay:10.37,2013-01-06 17:43:00,
2013-01-06 09:48:00,39.6,38.6,30.22,South,175,0.0,3.0,96,0.00,BKN,BKN,0.01,WeatherDisplay:10.37,2013-01-06 17:48:00,
2013-01-06 09:53:00,39.7,38.7,30.22,SSE,152,0.0,2.0,96,0.00,BKN,BKN,0.01,WeatherDisplay:10.37,2013-01-06 17:53:00,
2013-01-06 09:58:00,39.8,38.8,30.22,South,190,0.0,0.0,96,0.00,BKN,BKN,0.01,WeatherDisplay:10.37,2013-01-06 17:58:00,
2013-01-06 10:03:00,40.0,39.0,30.22,NW,311,0.0,0.0,96,0.00,BKN,BKN,0.01,WeatherDisplay:10.37,2013-01-06 18:03:00,
2013-01-06 10:08:00,40.1,39.1,30.22,NW,323,0.0,0.0,96,0.00,BKN,BKN,0.01,WeatherDisplay:10.37,2013-01-06 18:08:00,
2013-01-06 10:13:00,40.3,39.2,30.22,NW,321,0.0,0.0,96,0.00,BKN,BKN,0.01,WeatherDisplay:10.37,2013-01-06 18:13:00,
2013-01-06 10:18:00,40.4,39.4,30.22,WNW,292,0.0,2.0,96,0.00,BKN,BKN,0.01,WeatherDisplay:10.37,2013-01-06 18:18:00,
2013-01-06 10:23:00,40.6,39.3,30.22,WSW,250,0.0,1.0,95,0.00,BKN,BKN,0.01,WeatherDisplay:10.37,2013-01-06 18:23:00,
2013-01-06 10:28:00,40.7,39.4,30.22,SSE,150,0.0,0.0,95,0.00,BKN,BKN,0.01,WeatherDisplay:10.37,2013-01-06 18:28:00,
2013-01-06 10:33:00,41.0,39.6,30.23,South,190,0.0,0.0,95,0.00,BKN,BKN,0.01,WeatherDisplay:10.37,2013-01-06 18:33:00,
2013-01-06 10:38:00,41.1,39.8,30.23,South,182,0.0,0.0,95,0.00,BKN,BKN,0.01,WeatherDisplay:10.37,2013-01-06 18:38:00,
2013-01-06 10:43:00,41.1,39.5,30.23,East,88,0.0,0.0,94,0.00,BKN,BKN,0.01,WeatherDisplay:10.37,2013-01-06 18:43:00,
2013-01-06 10:48:00,41.2,39.6,30.22,NE,46,0.0,0.0,94,0.00,BKN,BKN,0.01,WeatherDisplay:10.37,2013-01-06 18:48:00,
2013-01-06 10:53:00,41.3,39.7,30.22,SE,134,0.0,0.0,94,0.00,BKN,BKN,0.01,WeatherDisplay:10.37,2013-01-06 18:53:00,
2013-01-06 10:58:00,41.4,39.8,30.22,SW,219,0.0,0.0,94,0.00,BKN,BKN,0.01,WeatherDisplay:10.37,2013-01-06 18:58:00,
2013-01-06 11:03:00,41.4,39.8,30.21,SW,235,0.0,0.0,94,0.00,BKN,BKN,0.01,WeatherDisplay:10.37,2013-01-06 19:03:00,
2013-01-06 11:08:00,41.5,39.9,30.21,South,186,0.0,0.0,94,0.00,BKN,BKN,0.01,WeatherDisplay:10.37,2013-01-06 19:08:00,
2013-01-06 11:13:00,41.6,40.0,30.21,SE,140,0.0,0.0,94,0.00,BKN,BKN,0.01,WeatherDisplay:10.37,2013-01-06 19:13:00,
2013-01-06 11:18:00,41.6,40.0,30.20,SE,139,0.0,0.0,94,0.00,BKN,BKN,0.01,WeatherDisplay:10.37,2013-01-06 19:18:00,
2013-01-06 11:23:00,41.6,39.7,30.20,SSW,194,0.0,0.0,93,0.00,BKN,BKN,0.01,WeatherDisplay:10.37,2013-01-06 19:23:00,
2013-01-06 11:28:00,41.7,40.1,30.20,WSW,244,0.0,0.0,94,0.00,BKN,BKN,0.01,WeatherDisplay:10.37,2013-01-06 19:28:00,
2013-01-06 11:33:00,41.7,40.1,30.20,WSW,239,0.0,0.0,94,0.00,BKN,BKN,0.01,WeatherDisplay:10.37,2013-01-06 19:33:00,
2013-01-06 11:38:00,41.8,40.2,30.20,WSW,239,0.0,0.0,94,0.00,BKN,BKN,0.01,WeatherDisplay:10.37,2013-01-06 19:38:00,
2013-01-06 11:48:00,41.9,40.0,30.19,SSW,209,0.0,0.0,93,0.00,BKN,BKN,0.01,WeatherDisplay:10.37,2013-01-06 19:48:00,
2013-01-06 11:53:00,42.0,40.4,30.19,South,189,0.0,0.0,94,0.00,BKN,BKN,0.01,WeatherDisplay:10.37,2013-01-06 19:53:00,
2013-01-06 12:03:00,42.3,40.4,30.18,SSE,165,0.0,0.0,93,0.00,BKN,BKN,0.01,WeatherDisplay:10.37,2013-01-06 20:03:00,
2013-01-06 12:18:00,42.9,40.7,30.17,SW,223,0.0,0.0,92,0.00,BKN,BKN,0.01,WeatherDisplay:10.37,2013-01-06 20:18:00,
2013-01-06 12:23:00,43.0,40.6,30.17,WSW,239,0.0,0.0,91,0.00,BKN,BKN,0.01,WeatherDisplay:10.37,2013-01-06 20:23:00,
2013-01-06 12:28:00,43.2,41.0,30.17,WSW,251,0.0,0.0,92,0.00,BKN,BKN,0.01,WeatherDisplay:10.37,2013-01-06 20:28:00,
2013-01-06 12:33:00,43.2,40.5,30.17,WSW,245,0.0,0.0,90,0.00,BKN,BKN,0.01,WeatherDisplay:10.37,2013-01-06 20:33:00,
2013-01-06 12:38:00,43.3,40.6,30.17,WSW,242,0.0,0.0,90,0.00,BKN,BKN,0.01,WeatherDisplay:10.37,2013-01-06 20:38:00,
2013-01-06 12:43:00,43.4,40.6,30.17,WSW,246,0.0,0.0,90,0.00,BKN,BKN,0.01,WeatherDisplay:10.37,2013-01-06 20:43:00,
2013-01-06 12:48:00,43.5,40.8,30.17,WSW,245,0.0,3.0,90,0.00,BKN,BKN,0.01,WeatherDisplay:10.37,2013-01-06 20:48:00,
2013-01-06 12:53:00,43.5,40.8,30.17,WSW,241,1.0,2.0,90,0.00,BKN,BKN,0.01,WeatherDisplay:10.37,2013-01-06 20:53:00,
2013-01-06 12:58:00,43.6,40.9,30.17,WSW,248,0.0,1.0,90,0.00,BKN,BKN,0.01,WeatherDisplay:10.37,2013-01-06 20:58:00,
2013-01-06 13:03:00,43.6,40.9,30.16,WSW,248,0.0,1.0,90,0.00,BKN,BKN,0.01,WeatherDisplay:10.37,2013-01-06 21:03:00,
2013-01-06 13:08:00,43.6,41.2,30.16,WSW,246,0.0,0.0,91,0.00,BKN,BKN,0.01,WeatherDisplay:10.37,2013-01-06 21:08:00,
2013-01-06 13:13:00,43.8,41.3,30.16,WSW,252,0.0,0.0,91,0.00,BKN,BKN,0.01,WeatherDisplay:10.37,2013-01-06 21:13:00,
2013-01-06 13:18:00,43.9,41.4,30.15,WSW,252,0.0,0.0,91,0.00,BKN,BKN,0.01,WeatherDisplay:10.37,2013-01-06 21:18:00,
2013-01-06 13:23:00,43.9,41.5,30.16,SW,223,0.0,0.0,91,0.00,BKN,BKN,0.01,WeatherDisplay:10.37,2013-01-06 21:23:00,
2013-01-06 13:28:00,44.0,41.5,30.15,South,189,0.0,0.0,91,0.00,BKN,BKN,0.01,WeatherDisplay:10.37,2013-01-06 21:28:00,
2013-01-06 13:33:00,44.1,41.6,30.16,South,187,0.0,0.0,91,0.00,BKN,BKN,0.01,WeatherDisplay:10.37,2013-01-06 21:33:00,
2013-01-06 13:38:00,44.1,41.6,30.15,South,187,0.0,0.0,91,0.00,BKN,BKN,0.01,WeatherDisplay:10.37,2013-01-06 21:38:00,
2013-01-06 13:43:00,44.1,41.4,30.15,SSW,197,0.0,0.0,90,0.00,BKN,BKN,0.01,WeatherDisplay:10.37,2013-01-06 21:43:00,
2013-01-06 13:48:00,44.1,41.4,30.15,SW,219,0.0,0.0,90,0.00,BKN,BKN,0.01,WeatherDisplay:10.37,2013-01-06 21:48:00,
2013-01-06 13:53:00,44.1,41.4,30.15,SW,228,0.0,0.0,90,0.00,BKN,BKN,0.01,WeatherDisplay:10.37,2013-01-06 21:53:00,
2013-01-06 13:58:00,44.0,41.3,30.15,SW,228,0.0,0.0,90,0.00,BKN,BKN,0.01,WeatherDisplay:10.37,2013-01-06 21:58:00,
2013-01-06 14:03:00,44.0,41.3,30.14,SW,228,0.0,0.0,90,0.00,BKN,BKN,0.01,WeatherDisplay:10.37,2013-01-06 22:03:00,
2013-01-06 14:08:00,44.0,41.2,30.15,SW,228,0.0,0.0,90,0.00,BKN,BKN,0.01,WeatherDisplay:10.37,2013-01-06 22:08:00,
2013-01-06 14:13:00,43.9,41.4,30.15,SW,228,0.0,0.0,91,0.00,BKN,BKN,0.01,WeatherDisplay:10.37,2013-01-06 22:13:00,
2013-01-06 14:18:00,43.8,41.3,30.15,SW,228,0.0,0.0,91,0.00,BKN,BKN,0.01,WeatherDisplay:10.37,2013-01-06 22:18:00,
2013-01-06 14:23:00,43.8,41.3,30.15,SW,228,0.0,0.0,91,0.00,BKN,BKN,0.01,WeatherDisplay:10.37,2013-01-06 22:23:00,
2013-01-06 14:28:00,43.7,41.5,30.15,SW,228,0.0,0.0,92,0.00,BKN,BKN,0.01,WeatherDisplay:10.37,2013-01-06 22:28:00,
2013-01-06 14:33:00,43.7,41.5,30.15,SW,228,0.0,0.0,92,0.00,BKN,BKN,0.01,WeatherDisplay:10.37,2013-01-06 22:33:00,
2013-01-06 14:43:00,43.5,41.3,30.15,SW,227,0.0,0.0,92,0.00,BKN,BKN,0.01,WeatherDisplay:10.37,2013-01-06 22:43:00,
2013-01-06 14:48:00,43.5,41.3,30.15,SW,226,0.0,0.0,92,0.00,BKN,BKN,0.01,WeatherDisplay:10.37,2013-01-06 22:48:00,
2013-01-06 14:53:00,43.3,41.2,30.15,SW,226,0.0,0.0,92,0.00,BKN,BKN,0.01,WeatherDisplay:10.37,2013-01-06 22:53:00,
2013-01-06 14:58:00,43.3,41.1,30.14,SW,226,0.0,0.0,92,0.00,BKN,BKN,0.01,WeatherDisplay:10.37,2013-01-06 22:58:00,
2013-01-06 15:03:00,43.3,41.1,30.14,SW,220,0.0,0.0,92,0.00,BKN,BKN,0.01,WeatherDisplay:10.37,2013-01-06 23:03:00,
2013-01-06 15:08:00,43.2,41.1,30.14,SSW,208,0.0,0.0,92,0.00,BKN,BKN,0.01,WeatherDisplay:10.37,2013-01-06 23:08:00,
2013-01-06 15:18:00,43.2,41.0,30.13,SSW,200,0.0,0.0,92,0.00,BKN,BKN,0.01,WeatherDisplay:10.37,2013-01-06 23:18:00,
2013-01-06 15:23:00,43.2,41.0,30.13,SW,214,0.0,0.0,92,0.00,BKN,BKN,0.01,WeatherDisplay:10.37,2013-01-06 23:23:00,
2013-01-06 15:28:00,43.2,41.0,30.13,SW,226,0.0,0.0,92,0.00,BKN,BKN,0.01,WeatherDisplay:10.37,2013-01-06 23:28:00,
2013-01-06 15:33:00,43.1,40.9,30.12,SW,226,0.0,0.0,92,0.00,BKN,BKN,0.01,WeatherDisplay:10.37,2013-01-06 23:33:00,
2013-01-06 15:43:00,43.1,40.9,30.12,WSW,256,0.0,0.0,92,0.00,BKN,BKN,0.01,WeatherDisplay:10.37,2013-01-06 23:43:00,
2013-01-06 15:48:00,43.0,40.8,30.12,WSW,255,0.0,0.0,92,0.00,BKN,BKN,0.01,WeatherDisplay:10.37,2013-01-06 23:48:00,
2013-01-06 15:58:00,42.9,40.7,30.12,WSW,255,0.0,0.0,92,0.00,BKN,BKN,0.01,WeatherDisplay:10.37,2013-01-06 23:58:00,
2013-01-06 16:03:00,42.8,40.6,30.13,WSW,255,0.0,0.0,92,0.00,BKN,BKN,0.01,WeatherDisplay:10.37,2013-01-07 00:03:00,
2013-01-06 16:08:00,42.7,40.6,30.12,WSW,255,0.0,0.0,92,0.00,BKN,BKN,0.01,WeatherDisplay:10.37,2013-01-07 00:08:00,
2013-01-06 16:13:00,42.7,40.5,30.13,WSW,255,0.0,0.0,92,0.00,BKN,BKN,0.01,WeatherDisplay:10.37,2013-01-07 00:13:00,
2013-01-06 16:18:00,42.6,40.4,30.13,WSW,255,0.0,0.0,92,0.00,BKN,BKN,0.01,WeatherDisplay:10.37,2013-01-07 00:18:00,
2013-01-06 16:23:00,42.5,40.4,30.13,WSW,255,0.0,0.0,92,0.00,BKN,BKN,0.01,WeatherDisplay:10.37,2013-01-07 00:23:00,
2013-01-06 16:33:00,42.4,40.2,30.13,WSW,255,0.0,0.0,92,0.00,BKN,BKN,0.01,WeatherDisplay:10.37,2013-01-07 00:33:00,
2013-01-06 16:43:00,42.3,40.1,30.12,WSW,255,0.0,0.0,92,0.00,BKN,BKN,0.01,WeatherDisplay:10.37,2013-01-07 00:43:00,
2013-01-06 16:48:00,42.2,40.0,30.12,WSW,255,0.0,0.0,92,0.00,BKN,BKN,0.01,WeatherDisplay:10.37,2013-01-07 00:48:00,
2013-01-06 16:58:00,42.0,40.1,30.12,WSW,255,0.0,0.0,93,0.00,BKN,BKN,0.01,WeatherDisplay:10.37,2013-01-07 00:58:00,
2013-01-06 17:03:00,42.0,40.1,30.11,WSW,256,0.0,0.0,93,0.00,BKN,BKN,0.01,WeatherDisplay:10.37,2013-01-07 01:03:00,
2013-01-06 17:08:00,41.9,40.0,30.11,WSW,256,0.0,0.0,93,0.00,BKN,BKN,0.01,WeatherDisplay:10.37,2013-01-07 01:08:00,
2013-01-06 17:13:00,41.9,40.0,30.11,WSW,256,0.0,0.0,93,0.00,BKN,BKN,0.01,WeatherDisplay:10.37,2013-01-07 01:13:00,
2013-01-06 17:18:00,41.7,39.8,30.11,WSW,256,0.0,0.0,93,0.00,BKN,BKN,0.01,WeatherDisplay:10.37,2013-01-07 01:18:00,
2013-01-06 17:23:00,41.7,39.8,30.10,WSW,256,0.0,0.0,93,0.00,BKN,BKN,0.01,WeatherDisplay:10.37,2013-01-07 01:23:00,
2013-01-06 17:33:00,41.6,39.7,30.11,WSW,256,0.0,0.0,93,0.00,BKN,BKN,0.01,WeatherDisplay:10.37,2013-01-07 01:33:00,
2013-01-06 17:38:00,41.5,39.6,30.11,WSW,256,0.0,0.0,93,0.00,BKN,BKN,0.01,WeatherDisplay:10.37,2013-01-07 01:38:00,
2013-01-06 17:43:00,41.4,39.8,30.10,WSW,255,0.0,0.0,94,0.00,BKN,BKN,0.01,WeatherDisplay:10.37,2013-01-07 01:43:00,
2013-01-06 17:48:00,41.4,39.8,30.10,WSW,255,0.0,0.0,94,0.00,BKN,BKN,0.01,WeatherDisplay:10.37,2013-01-07 01:48:00,
2013-01-06 17:53:00,41.3,39.7,30.10,WSW,255,0.0,0.0,94,0.00,BKN,BKN,0.01,WeatherDisplay:10.37,2013-01-07 01:53:00,
2013-01-06 17:58:00,41.3,39.7,30.10,WSW,255,0.0,0.0,94,0.01,RA,RA,0.02,WeatherDisplay:10.37,2013-01-07 01:58:00,
2013-01-06 18:03:00,41.2,39.6,30.10,WSW,255,0.0,0.0,94,0.00,RA,RA,0.02,WeatherDisplay:10.37,2013-01-07 02:03:00,
2013-01-06 18:08:00,41.2,39.6,30.10,WSW,255,0.0,0.0,94,0.00,BKN,BKN,0.02,WeatherDisplay:10.37,2013-01-07 02:08:00,
2013-01-06 18:13:00,41.1,39.5,30.10,WSW,255,0.0,0.0,94,0.00,BKN,BKN,0.02,WeatherDisplay:10.37,2013-01-07 02:13:00,
2013-01-06 18:18:00,41.1,39.5,30.10,WSW,255,0.0,0.0,94,0.01,RA,RA,0.03,WeatherDisplay:10.37,2013-01-07 02:18:00,
2013-01-06 18:23:00,41.0,39.4,30.11,WSW,255,0.0,0.0,94,0.00,RA,RA,0.03,WeatherDisplay:10.37,2013-01-07 02:23:00,
2013-01-06 18:28:00,40.9,39.6,30.11,SW,236,0.0,0.0,95,0.00,BKN,BKN,0.03,WeatherDisplay:10.37,2013-01-07 02:28:00,
2013-01-06 18:33:00,40.9,39.6,30.11,SSW,209,0.0,0.0,95,0.00,BKN,BKN,0.03,WeatherDisplay:10.37,2013-01-07 02:33:00,
2013-01-06 18:43:00,40.9,39.6,30.10,SW,222,0.0,0.0,95,0.00,RA,RA,0.04,WeatherDisplay:10.37,2013-01-07 02:43:00,
2013-01-06 18:48:00,40.9,39.6,30.10,SW,222,0.0,0.0,95,0.00,BKN,BKN,0.04,WeatherDisplay:10.37,2013-01-07 02:48:00,
2013-01-06 18:53:00,40.8,39.5,30.10,SW,222,0.0,0.0,95,0.00,BKN,BKN,0.04,WeatherDisplay:10.37,2013-01-07 02:53:00,
2013-01-06 18:58:00,40.8,39.5,30.10,SW,222,0.0,0.0,95,0.00,BKN,BKN,0.04,WeatherDisplay:10.37,2013-01-07 02:58:00,
2013-01-06 19:03:00,40.7,39.4,30.10,SW,222,0.0,0.0,95,0.00,BKN,BKN,0.04,WeatherDisplay:10.37,2013-01-07 03:03:00,
2013-01-06 19:08:00,40.7,39.4,30.10,SW,222,0.0,0.0,95,0.00,BKN,BKN,0.04,WeatherDisplay:10.37,2013-01-07 03:08:00,
2013-01-06 19:18:00,40.6,39.3,30.10,SW,222,0.0,0.0,95,0.00,RA,RA,0.05,WeatherDisplay:10.37,2013-01-07 03:18:00,
2013-01-06 19:23:00,40.6,39.3,30.10,SW,222,0.0,0.0,95,0.00,BKN,BKN,0.05,WeatherDisplay:10.37,2013-01-07 03:23:00,
2013-01-06 19:28:00,40.5,39.2,30.10,SW,222,0.0,0.0,95,0.01,RA,RA,0.06,WeatherDisplay:10.37,2013-01-07 03:28:00,
2013-01-06 19:33:00,40.5,39.2,30.10,SW,222,0.0,0.0,95,0.00,RA,RA,0.06,WeatherDisplay:10.37,2013-01-07 03:33:00,
2013-01-06 19:38:00,40.4,39.1,30.09,SW,222,0.0,0.0,95,0.01,RA,RA,0.07,WeatherDisplay:10.37,2013-01-07 03:38:00,
2013-01-06 19:43:00,40.4,39.4,30.09,SW,222,0.0,0.0,96,0.00,RA,RA,0.07,WeatherDisplay:10.37,2013-01-07 03:43:00,
2013-01-06 19:48:00,40.4,39.3,30.09,SW,222,0.0,0.0,96,0.00,BKN,BKN,0.07,WeatherDisplay:10.37,2013-01-07 03:48:00,
2013-01-06 19:53:00,40.3,39.3,30.09,SW,222,0.0,0.0,96,0.01,RA,RA,0.08,WeatherDisplay:10.37,2013-01-07 03:53:00,
2013-01-06 20:03:00,40.3,39.3,30.09,SW,222,0.0,0.0,96,0.01,RA,RA,0.09,WeatherDisplay:10.37,2013-01-07 04:03:00,
2013-01-06 20:08:00,40.3,39.2,30.09,SW,222,0.0,0.0,96,0.00,RA,RA,0.09,WeatherDisplay:10.37,2013-01-07 04:08:00,
2013-01-06 20:13:00,40.2,39.2,30.09,SSW,208,0.0,3.0,96,0.01,RA,RA,0.10,WeatherDisplay:10.37,2013-01-07 04:13:00,
2013-01-06 20:18:00,40.2,39.1,30.09,SE,144,0.0,2.0,96,0.01,RA,RA,0.11,WeatherDisplay:10.37,2013-01-07 04:18:00,
2013-01-06 20:23:00,40.1,39.1,30.09,SE,137,0.0,0.0,96,0.00,RA,RA,0.11,WeatherDisplay:10.37,2013-01-07 04:23:00,
2013-01-06 20:33:00,40.1,39.1,30.09,SE,131,0.0,1.0,96,0.01,RA,RA,0.12,WeatherDisplay:10.37,2013-01-07 04:33:00,
2013-01-06 20:38:00,40.1,39.0,30.08,SSE,154,0.0,2.0,96,0.00,RA,RA,0.12,WeatherDisplay:10.37,2013-01-07 04:38:00,
2013-01-06 20:43:00,40.0,39.0,30.08,SSW,201,0.0,1.0,96,0.00,BKN,BKN,0.12,WeatherDisplay:10.37,2013-01-07 04:43:00,
2013-01-06 20:48:00,39.9,38.9,30.08,SW,216,0.0,2.0,96,0.00,BKN,BKN,0.12,WeatherDisplay:10.37,2013-01-07 04:48:00,
2013-01-06 20:53:00,39.9,38.8,30.08,SW,215,0.0,1.0,96,0.01,RA,RA,0.13,WeatherDisplay:10.37,2013-01-07 04:53:00,
2013-01-06 20:58:00,39.8,38.8,30.07,SSW,201,0.0,0.0,96,0.00,RA,RA,0.13,WeatherDisplay:10.37,2013-01-07 04:58:00,
2013-01-06 21:03:00,39.7,38.7,30.07,SW,229,0.0,1.0,96,0.00,BKN,BKN,0.13,WeatherDisplay:10.37,2013-01-07 05:03:00,
2013-01-06 21:08:00,39.6,38.6,30.07,WSW,257,0.0,2.0,96,0.00,BKN,BKN,0.13,WeatherDisplay:10.37,2013-01-07 05:08:00,
2013-01-06 21:13:00,39.5,38.5,30.06,East,79,0.0,1.0,96,0.00,BKN,BKN,0.13,WeatherDisplay:10.37,2013-01-07 05:13:00,
2013-01-06 21:18:00,39.4,38.3,30.07,ENE,70,0.0,0.0,96,0.00,BKN,BKN,0.13,WeatherDisplay:10.37,2013-01-07 05:18:00,
2013-01-06 21:23:00,39.2,38.2,30.06,West,274,0.0,1.0,96,0.00,BKN,BKN,0.13,WeatherDisplay:10.37,2013-01-07 05:23:00,
2013-01-06 21:28:00,39.1,38.1,30.05,West,272,0.0,1.0,96,0.01,RA,RA,0.14,WeatherDisplay:10.37,2013-01-07 05:28:00,
2013-01-06 21:33:00,38.9,37.9,30.05,West,259,0.0,2.0,96,0.00,RA,RA,0.14,WeatherDisplay:10.37,2013-01-07 05:33:00,
2013-01-06 21:38:00,38.8,37.8,30.05,East,101,1.0,3.0,96,0.00,BKN,BKN,0.14,WeatherDisplay:10.37,2013-01-07 05:38:00,
2013-01-06 21:43:00,38.7,37.7,30.05,East,79,0.0,1.0,96,0.00,BKN,BKN,0.14,WeatherDisplay:10.37,2013-01-07 05:43:00,
2013-01-06 21:48:00,38.6,37.6,30.05,East,101,0.0,1.0,96,0.00,BKN,BKN,0.14,WeatherDisplay:10.37,2013-01-07 05:48:00,
2013-01-06 21:53:00,38.5,37.5,30.04,ESE,112,0.0,1.0,96,0.00,BKN,BKN,0.14,WeatherDisplay:10.37,2013-01-07 05:53:00,
2013-01-06 21:58:00,38.4,37.4,30.04,ESE,102,1.0,2.0,96,0.00,BKN,BKN,0.14,WeatherDisplay:10.37,2013-01-07 05:58:00,
2013-01-06 22:03:00,38.4,37.3,30.04,East,89,0.0,1.0,96,0.01,RA,RA,0.15,WeatherDisplay:10.37,2013-01-07 06:03:00,
2013-01-06 22:08:00,38.3,37.3,30.04,East,91,0.0,1.0,96,0.00,RA,RA,0.15,WeatherDisplay:10.37,2013-01-07 06:08:00,
2013-01-06 22:13:00,38.3,37.3,30.03,East,91,0.0,1.0,96,0.00,BKN,BKN,0.15,WeatherDisplay:10.37,2013-01-07 06:13:00,
2013-01-06 22:18:00,38.3,37.2,30.03,East,82,0.0,1.0,96,0.00,BKN,BKN,0.15,WeatherDisplay:10.37,2013-01-07 06:18:00,
2013-01-06 22:23:00,38.2,37.2,30.03,East,88,0.0,1.0,96,0.00,BKN,BKN,0.15,WeatherDisplay:10.37,2013-01-07 06:23:00,
2013-01-06 22:28:00,38.2,37.2,30.03,East,100,0.0,1.0,96,0.00,BKN,BKN,0.15,WeatherDisplay:10.37,2013-01-07 06:28:00,
2013-01-06 22:33:00,38.2,37.2,30.03,ESE,103,0.0,0.0,96,0.00,BKN,BKN,0.15,WeatherDisplay:10.37,2013-01-07 06:33:00,
2013-01-06 22:38:00,38.2,37.2,30.03,ESE,103,0.0,0.0,96,0.01,RA,RA,0.16,WeatherDisplay:10.37,2013-01-07 06:38:00,
2013-01-06 22:43:00,38.2,37.2,30.03,ESE,103,0.0,0.0,96,0.00,RA,RA,0.16,WeatherDisplay:10.37,2013-01-07 06:43:00,
2013-01-06 22:48:00,38.2,37.2,30.03,East,100,0.0,0.0,96,0.00,BKN,BKN,0.16,WeatherDisplay:10.37,2013-01-07 06:48:00,
2013-01-06 22:53:00,38.2,37.2,30.03,WNW,297,0.0,0.0,96,0.00,BKN,BKN,0.16,WeatherDisplay:10.37,2013-01-07 06:53:00,
2013-01-06 22:58:00,38.2,37.2,30.03,NW,310,0.0,0.0,96,0.00,BKN,BKN,0.16,WeatherDisplay:10.37,2013-01-07 06:58:00,
2013-01-06 23:03:00,38.3,37.2,30.02,North,357,0.0,0.0,96,0.00,BKN,BKN,0.16,WeatherDisplay:10.37,2013-01-07 07:03:00,
2013-01-06 23:08:00,38.3,37.3,30.02,NNE,29,0.0,0.0,96,0.00,BKN,BKN,0.16,WeatherDisplay:10.37,2013-01-07 07:08:00,
2013-01-06 23:13:00,38.3,37.3,30.02,NNE,15,0.0,0.0,96,0.01,RA,RA,0.17,WeatherDisplay:10.37,2013-01-07 07:13:00,
2013-01-06 23:18:00,38.3,37.3,30.02,NNE,13,0.0,1.0,96,0.00,RA,RA,0.17,WeatherDisplay:10.37,2013-01-07 07:18:00,
2013-01-06 23:23:00,38.4,37.4,30.02,North,10,0.0,1.0,96,0.00,BKN,BKN,0.17,WeatherDisplay:10.37,2013-01-07 07:23:00,
2013-01-06 23:28:00,38.4,37.4,30.02,West,273,0.0,0.0,96,0.01,RA,RA,0.18,WeatherDisplay:10.37,2013-01-07 07:28:00,
2013-01-06 23:33:00,38.4,37.4,30.01,West,277,0.0,1.0,96,0.00,RA,RA,0.18,WeatherDisplay:10.37,2013-01-07 07:33:00,
2013-01-06 23:43:00,38.5,37.5,30.01,ENE,72,0.0,0.0,96,0.01,RA,RA,0.19,WeatherDisplay:10.37,2013-01-07 07:43:00,
2013-01-06 23:53:00,38.6,37.5,30.01,ESE,116,0.0,0.0,96,0.01,RA,RA,0.20,WeatherDisplay:10.37,2013-01-07 07:53:00,
2013-01-06 23:58:00,38.6,37.6,30.01,SE,128,0.0,0.0,96,0.00,RA,RA,0.20,WeatherDisplay:10.37,2013-01-07 07:58:00,